CW6633 Weather Reports


Display with metric or nautical units.
time (UTC)temp
F
wind
direction
speed
MPH
gust
MPH
rain 1hr
in
rain 24hr
in
rain mn
in
humidity
%
barometer
mb
20190626104516 58 0.0 2.0 0.00 0.00 0.00 38 1030.5
20190626103516 58 0.0 2.0 0.00 0.00 0.00 40 1030.8
20190626102516 58 157 1.0 4.0 0.00 0.00 0.00 41 1030.4
20190626101517 54 0.0 2.0 0.00 0.00 0.00 46 1029.2
20190626100516 54 0.0 1.0 0.00 0.00 0.00 51 1029.3
20190626095516 55 0.0 1.0 0.00 0.00 0.00 49 1029.8
20190626094516 55 0.0 0.0 0.00 0.00 0.00 49 1029.9
20190626093516 55 0.0 1.0 0.00 0.00 0.00 50 1030.4
20190626092517 54 0.0 0.0 0.00 0.00 0.00 53 1030.4
20190626091516 54 0.0 1.0 0.00 0.00 0.00 55 1030.5
20190626090516 53 0.0 1.0 0.00 0.00 0.00 56 1030.7
20190626085516 54 0.0 0.0 0.00 0.00 0.00 58 1030.4
20190626084516 54 0.0 1.0 0.00 0.00 0.00 58 1030.4
20190626083516 54 0.0 0.0 0.00 0.00 0.00 55 1029.9
20190626082516 55 0.0 0.0 0.00 0.00 0.00 55 1029.5
20190626081518 56 0.0 1.0 0.00 0.00 0.00 53 1030.0
20190626080516 56 0.0 0.0 0.00 0.00 0.00 52 1030.0
20190626075516 57 0.0 1.0 0.00 0.00 0.00 52 1030.4
20190626074516 57 0.0 1.0 0.00 0.00 0.00 51 1030.4
20190626073516 56 0.0 0.0 0.00 0.00 0.00 51 1030.8
20190626072516 57 0.0 1.0 0.00 0.00 0.00 50 1030.5
20190626071516 57 0.0 0.0 0.00 0.00 0.00 49 1031.0
20190626070516 58 0.0 0.0 0.00 0.00 0.00 50 1031.5
20190626065515 58 0.0 1.0 0.00 0.00 0.00 50 1031.0
20190626064516 57 0.0 1.0 0.00 0.00 0.00 52 1031.0
20190626063516 57 0.0 0.0 0.00 0.00 0.00 51 1031.0
20190626062515 58 0.0 0.0 0.00 0.00 0.00 49 1031.4
20190626061516 58 0.0 0.0 0.00 0.00 0.00 48 1031.5
20190626060516 59 0.0 1.0 0.00 0.00 0.00 46 1031.1
20190626055516 60 0.0 0.0 0.00 0.00 0.00 44 1031.4
20190626054516 62 0.0 1.0 0.00 0.00 0.00 41 1031.7
20190626053516 62 0.0 1.0 0.00 0.00 0.00 37 1031.8
20190626052516 65 0.0 0.0 0.00 0.00 0.00 34 1032.0
20190626051516 66 0.0 2.0 0.00 0.00 0.00 32 1031.7
20190626050515 64 0.0 1.0 0.00 0.00 0.00 33 1030.8
20190626045515 65 0.0 1.0 0.00 0.00 0.00 32 1030.5
20190626044516 66 0.0 1.0 0.00 0.00 0.00 28 1030.3
20190626043518 68 0.0 1.0 0.00 0.00 0.00 27 1030.6
20190626042518 68 0.0 1.0 0.00 0.00 0.00 25 1030.8
20190626041517 70 0.0 1.0 0.00 0.00 0.00 24 1030.8
20190626040518 70 0.0 4.0 0.00 0.00 0.00 24 1030.7
20190626035517 71 0.0 2.0 0.00 0.00 0.00 23 1030.6
20190626034517 72 0.0 4.0 0.00 0.00 0.00 22 1030.4
20190626033518 73 135 1.0 7.0 0.00 0.00 0.00 22 1030.2
20190626032517 72 202 2.0 8.0 0.00 0.00 0.00 22 1029.9
20190626031517 72 202 1.0 6.0 0.00 0.00 0.00 22 1029.8
20190626030517 72 0.0 2.0 0.00 0.00 0.00 23 1029.3
20190626025518 72 292 1.0 4.0 0.00 0.00 0.00 22 1028.9
20190626024518 73 225 1.0 3.0 0.00 0.00 0.00 22 1028.5
20190626023518 74 45 2.0 7.0 0.00 0.00 0.00 22 1028.5
20190626022517 74 270 2.0 6.0 0.00 0.00 0.00 21 1028.3
20190626021517 73 67 2.0 10.0 0.00 0.00 0.00 23 1028.0
20190626020518 72 0.0 2.0 0.00 0.00 0.00 27 1028.2
20190626015517 73 0.0 2.0 0.00 0.00 0.00 31 1028.0
20190626014517 75 0.0 2.0 0.00 0.00 0.00 29 1028.3
20190626013517 77 0.0 2.0 0.00 0.00 0.00 29 1028.6
20190626012517 81 0.0 4.0 0.00 0.00 0.00 26 1029.0
20190626011517 81 0.0 2.0 0.00 0.00 0.00 26 1028.8
20190626010519 81 0 1.0 4.0 0.00 0.00 0.00 26 1028.8
20190626005517 81 0.0 2.0 0.00 0.00 0.00 24 1028.7
20190626004517 82 0.0 3.0 0.00 0.00 0.00 25 1028.5
20190626003517 80 0.0 3.0 0.00 0.00 0.00 26 1028.1
20190626002517 78 0.0 2.0 0.00 0.00 0.00 28 1027.3
20190626001517 77 90 1.0 3.0 0.00 0.00 0.00 26 1027.2
20190626000518 77 67 1.0 4.0 0.00 0.00 0.00 25 1027.3
20190625235518 78 337 2.0 5.0 0.00 0.00 0.00 24 1027.7
20190625234517 79 0.0 5.0 0.00 0.00 0.00 24 1027.5
20190625233517 79 0 2.0 6.0 0.00 0.00 0.00 23 1027.4
20190625232517 79 0 2.0 9.0 0.00 0.00 0.00 22 1027.2
20190625231517 79 0.0 3.0 0.00 0.00 0.00 23 1027.7
20190625230517 80 337 1.0 6.0 0.00 0.00 0.00 24 1027.7
20190625225517 79 337 2.0 7.0 0.00 0.00 0.00 22 1027.7
20190625224517 80 0 1.0 4.0 0.00 0.00 0.00 22 1027.7
20190625223517 81 337 3.0 7.0 0.00 0.00 0.00 20 1027.8
20190625222517 80 0 2.0 7.0 0.00 0.00 0.00 24 1027.9
20190625221518 78 22 2.0 7.0 0.00 0.00 0.00 25 1027.7
20190625220518 78 315 3.0 12.0 0.00 0.00 0.00 25 1028.0
20190625215517 78 337 2.0 8.0 0.00 0.00 0.00 24 1028.4
20190625214517 79 337 2.0 6.0 0.00 0.00 0.00 24 1028.3
20190625213517 80 22 2.0 5.0 0.00 0.00 0.00 22 1028.8
20190625212517 81 0.0 3.0 0.00 0.00 0.00 23 1028.6
20190625211517 81 0 3.0 7.0 0.00 0.00 0.00 21 1028.8
20190625210517 82 337 4.0 11.0 0.00 0.00 0.00 21 1029.2
20190625205517 81 337 2.0 5.0 0.00 0.00 0.00 23 1029.1
20190625204517 80 337 1.0 6.0 0.00 0.00 0.00 23 1029.1
20190625203517 79 0 3.0 11.0 0.00 0.00 0.00 23 1028.7
20190625202518 76 22 2.0 5.0 0.00 0.00 0.00 26 1027.7
20190625201518 76 22 1.0 6.0 0.00 0.00 0.00 27 1028.2
20190625200517 77 0 1.0 7.0 0.00 0.00 0.00 27 1028.3
20190625195517 77 135 1.0 5.0 0.00 0.00 0.00 30 1028.7
20190625194517 78 0.0 1.0 0.00 0.00 0.00 31 1028.8
20190625193517 79 0.0 3.0 0.00 0.00 0.00 31 1029.0
20190625192516 78 0.0 2.0 0.00 0.00 0.00 34 1029.2
20190625191517 78 0.0 1.0 0.00 0.00 0.00 32 1028.8
20190625190517 78 0.0 1.0 0.00 0.00 0.00 32 1029.3
20190625185517 79 0.0 1.0 0.00 0.00 0.00 29 1028.6
20190625184517 79 0.0 1.0 0.00 0.00 0.00 28 1029.3
20190625183517 80 135 1.0 3.0 0.00 0.00 0.00 27 1029.5
20190625182517 80 0.0 2.0 0.00 0.00 0.00 27 1029.9
20190625181517 79 135 1.0 4.0 0.00 0.00 0.00 31 1029.7
20190625180516 78 0.0 1.0 0.00 0.00 0.00 33 1029.9
20190625175517 78 0.0 1.0 0.00 0.00 0.00 29 1029.4
20190625174516 79 0.0 2.0 0.00 0.00 0.00 32 1029.9
20190625173517 78 0.0 3.0 0.00 0.00 0.00 32 1030.3
20190625172516 79 0.0 2.0 0.00 0.00 0.00 31 1030.9
20190625171517 78 0.0 1.0 0.00 0.00 0.00 28 1030.7
20190625170516 78 0.0 1.0 0.00 0.00 0.00 33 1030.6
20190625165516 75 0.0 2.0 0.00 0.00 0.00 37 1030.7
20190625164517 75 0.0 1.0 0.00 0.00 0.00 35 1030.2
20190625163516 73 0.0 1.0 0.00 0.00 0.00 33 1029.8
20190625162516 74 0.0 3.0 0.00 0.00 0.00 32 1029.7
20190625161517 75 45 1.0 3.0 0.00 0.00 0.00 34 1030.1
20190625160517 74 315 1.0 3.0 0.00 0.00 0.00 38 1029.9
20190625155516 73 0 1.0 3.0 0.00 0.00 0.00 36 1030.0
20190625154516 72 315 1.0 4.0 0.00 0.00 0.00 35 1030.1
20190625153516 72 0.0 3.0 0.00 0.00 0.00 41 1030.2
20190625152516 72 0.0 1.0 0.00 0.00 0.00 44 1030.4
20190625151516 71 0.0 1.0 0.00 0.00 0.00 40 1030.3
20190625150516 70 0.0 0.0 0.00 0.00 0.00 42 1030.2
20190625145518 68 0.0 0.0 0.00 0.00 0.00 47 1030.3
20190625144516 66 0.0 0.0 0.00 0.00 0.00 48 1030.3
20190625143517 64 0.0 0.0 0.00 0.00 0.00 47 1030.2
20190625142517 64 0.0 0.0 0.00 0.00 0.00 49 1030.2
20190625141516 63 0.0 1.0 0.00 0.00 0.00 47 1030.3
20190625140516 62 0.0 0.0 0.00 0.00 0.00 46 1030.2
20190625135516 62 0.0 1.0 0.00 0.00 0.00 45 1030.2
20190625134517 61 0.0 0.0 0.00 0.00 0.00 49 1030.8
20190625133516 61 0.0 1.0 0.00 0.00 0.00 51 1031.2
20190625132516 60 0.0 0.0 0.00 0.00 0.00 51 1031.1
20190625131516 59 0.0 0.0 0.00 0.00 0.00 50 1030.6
20190625130517 58 0.0 0.0 0.00 0.00 0.00 51 1030.7
20190625125516 58 0.0 0.0 0.00 0.00 0.00 53 1030.5
20190625124516 57 135 1.0 2.0 0.00 0.00 0.00 47 1030.4
20190625123517 56 0.0 2.0 0.00 0.00 0.00 48 1029.9
20190625122517 55 0.0 2.0 0.00 0.00 0.00 48 1029.5
20190625121516 55 0.0 1.0 0.00 0.00 0.00 48 1029.4
20190625120516 55 112 1.0 3.0 0.00 0.00 0.00 47 1029.4
20190625115516 55 0.0 2.0 0.00 0.00 0.00 48 1028.9
20190625114516 54 0.0 0.0 0.00 0.00 0.00 48 1028.7
20190625113516 54 0.0 2.0 0.00 0.00 0.00 47 1028.7
20190625112516 55 0.0 0.0 0.00 0.00 0.00 47 1029.0
20190625111517 56 0.0 0.0 0.00 0.00 0.00 47 1029.6
20190625110516 56 0.0 1.0 0.00 0.00 0.00 47 1029.7
20190625105517 55 0.0 3.0 0.00 0.00 0.00 48 1029.8